Location: Brienzwiler
(46.7508°N, 8.1014°E)
Time: 06:58:12
(UTC+00:00)

Cosmos 1408 - Pass Details

Date: 05 July 2020
Orbit: 470 x 493 km, 82.6° (Epoch: 06 August)

Event Time Altitude Azimuth Distance (km) Brightness Sun altitude
Exits shadow 23:03:13 22° 255° (WSW) 1,079 4.2 -20.3°
Maximum altitude 23:04:22 26° 286° (WNW) 960 4.2 -20.3°
Drops below altitude 10° 23:07:27 10° 346° (NNW) 1,645 6.4 -20.4°
Sets 23:09:47 0° 359° (N) 2,527 7.8 -20.4°
